Theta_e
303 303 303 303 303 304 304 304 304 304 304 305 306 311 315 316 317 315 321 321 322 329 330 328 328 327 328 334 336 338 337 335 334 336 335 335 336 334 334 331 331 334 336 333 332 332 334 333 333 332 341 337 337 339
303 303 303 303 303 303 303 304 304 305 305 305 306 309 312 315 317 317 322 319 317 319 325 323 323 325 326 328 334 334 336 339 340 337 335 336 336 332 331 333 335 333 334 339 337 340 337 334 338 336 337 338 339 340
303 303 303 303 303 303 303 304 304 304 305 305 305 306 311 313 316 316 320 321 319 323 325 326 327 327 324 321 324 333 333 335 336 333 334 334 336 333 333 333 334 335 335 333 334 333 334 333 334 335 334 337 336 335
303 303 303 303 303 303 303 304 304 304 305 305 305 305 310 313 316 317 320 323 320 320 326 326 325 326 326 326 326 324 330 332 332 333 334 333 335 333 332 334 335 336 338 332 334 334 334 333 333 334 335 335 333 331
303 303 303 303 303 303 303 304 304 304 305 305 305 305 309 312 315 317 319 322 320 318 326 326 323 324 324 324 324 327 328 332 334 335 335 332 333 335 333 331 332 333 332 332 336 335 332 335 333 334 334 333 331 330
302 303 303 303 303 303 303 303 304 304 304 305 305 305 308 312 314 318 325 322 322 317 324 330 327 327 325 327 327 331 332 333 333 334 334 333 330 334 333 335 335 332 331 331 334 330 332 333 333 332 331 331 330 329
303 303 302 303 303 303 303 303 303 304 304 305 305 305 308 312 314 322 325 319 318 321 328 332 330 328 325 328 331 332 332 333 333 334 334 333 332 332 332 333 333 331 331 331 330 330 331 332 333 332 332 331 329 329
302 302 302 302 302 303 303 303 304 304 304 305 305 306 310 311 315 319 321 319 319 321 326 331 330 328 327 328 331 331 332 332 332 332 332 334 332 336 338 332 331 331 332 331 331 330 329 331 332 332 331 331 330 330
302 302 302 302 302 303 303 304 304 304 305 305 306 308 312 317 322 321 318 316 317 321 331 330 331 331 330 328 331 334 331 334 332 333 333 332 333 336 334 334 330 330 332 331 331 330 329 330 333 332 331 330 330 327
303 303 303 303 303 303 303 304 304 305 305 305 309 316 323 321 316 315 320 322 319 320 324 328 328 330 328 329 331 330 332 333 337 334 332 335 332 333 331 332 334 332 331 330 331 333 331 330 332 331 331 330 329 328
303 303 303 304 304 304 304 304 305 305 305 310 317 320 321 317 321 325 328 329 327 328 327 328 328 329 327 328 330 333 332 335 335 331 333 334 334 333 334 332 332 331 332 331 331 331 330 330 330 332 331 330 328 327
304 305 305 306 306 305 305 305 306 306 311 312 313 315 319 323 327 328 330 329 330 330 329 329 330 329 327 326 326 334 331 330 331 329 331 333 333 335 334 332 331 331 331 331 330 331 330 331 331 330 329 329 328 326
306 306 306 306 306 306 306 306 306 307 308 311 316 321 326 327 329 330 330 330 329 329 330 330 331 329 329 327 325 327 331 331 331 333 330 332 336 335 338 335 334 332 331 330 330 330 330 330 328 328 328 327 327 327
307 307 306 306 306 306 307 306 306 306 306 314 322 330 328 329 327 327 328 329 329 329 331 329 329 330 327 326 326 329 327 329 332 332 332 335 338 340 339 336 335 334 334 333 333 330 331 330 328 328 327 328 328 328
308 307 307 307 306 307 307 307 306 307 309 316 323 330 327 325 327 328 326 327 328 327 329 332 331 332 329 329 328 328 331 333 333 334 332 330 340 339 338 336 335 335 334 333 332 332 332 330 330 329 328 328 329 330
308 307 307 307 307 307 307 307 306 307 310 316 319 325 326 328 326 327 327 327 326 327 327 329 332 332 330 329 331 332 331 331 334 332 333 333 339 340 340 336 336 335 333 333 332 332 332 331 331 331 330 330 331 331
307 307 308 307 307 307 307 307 308 309 315 320 322 323 325 329 330 331 330 329 329 329 331 331 332 331 333 330 329 328 330 330 333 334 336 340 339 343 340 336 335 335 334 333 332 331 330 331 331 332 333 331 329 329
307 308 307 307 307 307 306 308 312 315 318 319 322 323 324 326 329 332 328 328 330 332 333 331 331 331 330 330 330 331 332 332 335 334 335 340 341 340 338 337 334 333 334 334 334 333 332 331 331 330 330 331 328 327
308 308 307 307 307 306 307 308 310 318 318 318 320 321 323 325 328 329 330 329 327 330 333 333 332 331 330 329 329 330 328 332 334 333 334 338 338 336 336 337 335 333 333 333 331 329 328 330 330 329 329 329 329 327
308 308 307 307 306 309 313 314 313 317 321 321 320 321 322 324 325 326 327 327 327 328 334 334 332 331 332 330 333 332 332 330 329 333 335 332 333 335 335 334 333 338 334 334 333 331 330 331 329 329 329 328 328 328
308 308 307 307 306 307 311 317 317 316 318 322 323 323 322 322 324 325 327 326 329 326 328 330 331 333 328 328 329 329 329 330 330 329 330 333 334 331 332 333 333 331 331 331 331 330 329 329 329 329 329 328 327 327
308 307 307 306 307 309 312 314 320 321 320 322 326 325 323 323 323 324 325 327 327 326 325 326 330 330 334 334 329 328 329 330 328 329 328 327 329 329 332 330 330 331 330 331 329 330 329 329 330 330 330 329 328 328
307 307 306 306 308 309 315 318 321 321 322 322 327 327 328 326 323 322 322 324 325 326 326 326 329 327 329 328 328 328 328 329 329 329 330 328 328 329 329 329 329 329 330 329 328 329 329 329 329 329 328 329 328 328
308 308 309 309 309 312 318 322 322 323 321 321 325 325 325 327 326 326 327 327 328 327 327 329 328 328 328 329 330 328 327 328 327 326 327 327 329 330 329 329 329 329 329 328 329 331 330 330 330 329 328 329 330 330
308 309 310 311 314 315 319 321 322 323 322 321 323 324 328 329 329 329 330 333 332 331 328 327 327 327 328 327 329 329 327 326 326 327 326 326 327 327 328 328 327 326 328 329 329 328 330 331 330 329 329 329 330 330
311 312 313 317 318 320 321 323 323 323 322 322 325 325 326 327 328 331 335 335 335 335 334 333 332 332 330 330 329 328 331 329 329 328 327 326 326 327 327 329 328 326 329 330 328 329 329 330 330 330 330 329 328 328
315 314 317 317 319 319 321 323 325 325 325 326 324 325 328 329 331 334 334 332 332 330 330 331 332 332 331 330 330 329 330 330 331 331 331 331 329 328 328 329 331 330 332 331 329 329 330 330 329 330 328 329 329 329
313 315 319 319 320 320 319 325 325 326 325 324 325 327 328 332 333 332 329 327 327 326 327 328 329 330 332 332 331 331 331 331 331 332 331 331 331 331 330 331 331 331 331 331 330 330 330 330 329 329 330 330 330 328
318 319 319 320 320 321 323 325 325 325 323 325 328 329 330 325 324 326 327 323 321 322 322 325 328 329 332 331 333 331 331 331 332 333 334 334 332 332 332 332 332 332 332 332 331 330 330 331 330 330 330 330 328 328
319 318 318 319 321 322 322 322 323 322 322 327 327 326 325 324 324 325 326 324 323 321 321 323 326 327 328 330 332 332 332 331 331 331 334 335 333 332 332 332 332 332 332 332 331 330 328 327 327 327 328 329 329 328
317 317 319 319 320 320 320 320 319 320 323 329 329 329 327 325 324 324 324 324 325 325 324 324 324 325 325 326 328 330 331 328 329 330 329 329 329 330 331 333 333 332 332 332 332 331 331 329 328 328 328 328 328 327
317 318 320 320 321 321 319 320 321 325 329 331 331 328 327 328 327 323 322 322 323 324 323 322 323 323 321 323 326 327 326 327 327 327 327 327 326 327 328 329 331 332 331 331 331 331 331 331 330 328 328 328 328 328
317 317 317 319 322 322 321 322 325 325 326 328 327 328 328 327 326 322 321 321 321 322 321 321 321 322 324 324 325 326 323 324 325 324 324 325 325 324 324 325 327 328 328 329 330 330 330 330 330 330 330 329 329 329
Wind_Speed
17 16 17 18 18 18 18 18 17 18 19 20 16 10 11 15 14 15 6 7 8 6 11 11 8 9 9 8 9 6 6 10 8 10 9 10 6 7 4 9 11 9 9 10 7 9 2 4 7 3 6 2 2 3
16 16 17 17 18 17 17 16 16 17 17 18 18 10 9 12 12 11 6 6 8 7 9 17 19 19 15 16 10 6 9 5 2 5 2 6 7 5 6 10 4 8 9 1 3 2 2 2 7 6 2 3 3 5
17 16 16 17 17 17 16 16 16 15 16 17 17 16 8 10 10 9 9 10 13 7 12 13 11 9 11 19 18 9 9 2 3 4 7 6 4 7 9 4 9 7 5 6 3 7 5 3 6 3 1 4 5 7
16 17 17 16 16 16 16 16 15 15 15 15 17 17 8 8 9 10 8 9 9 8 5 2 2 6 7 9 14 21 17 4 5 5 7 6 5 7 7 5 9 4 10 6 7 6 3 5 4 7 5 6 5 5
16 17 17 16 16 16 17 16 16 15 14 15 16 19 8 8 10 12 13 10 8 6 6 9 22 18 10 14 16 16 17 12 6 8 8 9 4 2 12 5 10 6 7 4 3 3 4 10 6 10 8 8 6 5
18 17 17 17 16 17 17 17 17 16 15 14 15 18 10 7 10 7 4 4 4 6 5 4 3 6 5 7 12 13 13 9 6 8 5 5 5 9 6 6 14 9 4 4 5 4 1 2 11 9 8 6 6 4
18 18 18 18 17 17 17 17 16 15 15 13 15 16 9 7 9 7 5 3 2 3 4 5 4 6 5 7 10 9 14 6 6 8 10 11 3 7 11 13 10 15 5 7 2 1 5 6 8 10 8 7 5 5
19 19 19 19 18 17 16 15 15 14 14 13 15 13 8 9 12 12 9 12 9 8 5 4 5 5 7 6 8 10 7 6 6 8 9 9 6 3 6 14 16 13 7 8 5 6 10 5 10 11 11 10 9 7
19 18 17 17 17 16 16 14 13 12 12 13 12 7 5 4 6 4 5 6 10 6 5 4 7 3 3 8 2 1 6 6 4 10 11 11 10 9 7 17 13 16 14 12 10 12 8 6 10 12 12 12 9 7
19 19 17 17 16 16 15 13 12 11 9 11 5 4 5 5 1 1 2 5 6 6 5 8 9 9 3 4 4 6 1 7 2 9 2 8 12 12 18 27 5 14 10 12 13 10 9 9 10 13 13 11 10 9
20 20 19 16 16 14 13 12 10 8 4 2 4 1 4 3 5 5 3 4 5 4 5 6 8 8 6 8 6 1 3 3 6 7 12 8 13 10 6 17 15 15 14 14 12 12 11 12 13 14 12 10 12 11
20 20 19 17 16 15 13 11 9 7 1 3 8 7 3 4 4 4 5 5 6 6 5 6 2 4 2 2 4 4 5 2 5 3 5 12 1 12 7 7 10 11 14 16 14 12 11 13 12 9 10 12 13 10
21 21 19 18 16 15 13 11 11 12 6 4 5 4 4 4 4 7 9 5 4 5 5 5 4 3 3 5 5 2 4 6 6 3 5 5 8 6 15 5 5 8 9 10 12 16 12 5 10 10 10 13 12 9
21 19 18 16 15 14 13 12 11 9 5 3 5 4 6 6 6 7 9 1 4 3 4 3 2 4 3 5 4 3 5 4 6 8 7 3 6 8 5 4 5 7 10 12 14 13 14 14 12 10 10 11 15 12
18 17 14 14 13 12 12 13 14 9 3 3 4 5 8 9 6 8 2 2 4 3 3 1 2 2 2 2 3 3 2 5 3 5 3 8 2 3 5 5 5 5 5 8 9 11 14 13 11 10 10 10 11 12
13 10 16 13 10 13 14 15 12 4 4 3 5 5 9 7 9 4 6 5 3 4 4 3 1 2 5 4 4 5 3 2 3 3 8 14 6 8 9 8 6 4 3 7 11 10 10 11 12 11 10 10 10 11
12 6 9 11 13 17 21 9 5 5 4 4 6 9 10 7 6 3 3 1 2 5 4 2 4 6 4 3 4 3 3 3 3 7 7 6 6 7 8 7 7 7 5 5 7 8 10 12 10 9 8 8 9 9
10 10 11 16 22 23 10 4 5 5 7 8 8 8 9 7 4 5 2 1 3 2 3 4 3 6 3 3 1 3 8 10 7 5 4 5 5 5 5 5 6 6 6 7 8 7 6 7 9 9 8 8 8 9
12 13 16 26 26 8 7 5 5 4 8 8 9 10 6 6 2 6 4 1 2 2 2 2 4 2 4 6 8 2 1 7 2 2 3 4 1 1 2 2 1 3 4 4 5 10 11 6 7 6 8 12 12 12
11 13 22 30 17 4 5 4 8 5 4 5 9 10 9 8 7 7 6 4 3 1 3 4 5 5 6 2 2 3 4 3 6 3 4 3 10 5 3 4 4 3 6 5 5 3 7 9 11 11 12 12 13 13
10 12 23 29 4 4 3 2 6 5 6 7 7 9 8 9 10 7 5 5 5 3 5 6 7 4 2 6 6 8 5 5 7 8 6 5 9 5 2 5 6 7 6 7 6 5 5 9 10 7 9 11 13 15
8 15 7 5 2 3 4 6 5 5 5 5 4 6 6 9 10 10 6 6 9 9 9 8 6 2 6 8 8 8 8 7 8 10 8 8 6 6 5 9 8 6 7 5 6 7 9 10 14 14 13 11 8 11
11 7 4 3 2 3 6 6 5 5 4 4 5 4 3 4 6 6 6 8 11 10 11 10 12 13 10 13 9 10 10 10 8 10 9 11 12 10 9 7 9 7 8 11 11 11 9 3 2 8 13 7 9 9
7 3 4 5 5 4 5 4 4 4 5 6 5 3 5 4 3 3 8 7 5 3 5 6 7 8 9 11 10 10 15 15 13 13 13 10 6 7 10 14 13 12 11 10 2 8 8 10 6 9 11 11 10 11
3 3 3 5 5 4 5 4 7 6 5 9 10 4 2 5 5 4 7 2 5 4 2 6 7 7 6 6 5 11 19 10 9 8 8 11 10 9 12 5 6 11 17 9 10 14 13 12 9 9 8 14 12 8
3 6 5 7 5 6 4 4 7 8 4 5 5 2 3 2 3 1 3 3 4 4 5 6 4 5 3 7 5 2 2 2 6 8 11 11 9 9 8 3 5 14 18 21 9 11 9 22 5 12 10 14 10 8
4 4 5 4 2 0 4 6 7 4 5 5 4 2 2 2 1 2 4 5 3 6 6 4 8 9 7 10 10 8 7 6 7 10 8 9 11 12 12 8 5 12 3 10 3 9 13 15 13 12 9 8 12 15
3 3 6 2 4 3 3 6 3 5 5 4 4 4 1 2 2 3 4 7 9 9 8 6 5 8 12 11 9 8 8 8 8 9 11 12 12 15 15 10 9 8 10 11 12 12 15 12 15 7 11 11 12 13
4 3 5 8 5 4 6 5 3 2 5 3 2 2 1 3 2 2 5 6 9 10 9 8 9 2 2 9 7 6 4 6 7 5 11 10 7 1 4 9 6 9 11 12 11 10 10 9 11 10 11 14 14 9
3 2 3 2 3 3 1 2 3 5 3 3 3 3 3 2 3 1 3 6 7 8 13 11 9 10 10 8 6 9 13 10 15 11 6 8 11 17 17 13 11 10 10 10 10 12 9 10 10 10 10 11 13 11
2 1 3 3 3 2 4 4 5 4 3 3 5 6 5 3 5 6 9 8 4 2 8 11 11 11 11 11 10 8 5 10 10 10 11 13 13 14 13 12 10 10 10 10 11 13 12 14 13 15 16 17 16 12
1 2 2 2 2 1 1 2 1 2 3 7 8 9 6 4 3 3 8 10 9 9 8 10 11 12 12 10 7 8 9 12 12 13 14 14 14 13 13 14 14 12 12 14 12 13 13 13 15 12 15 15 12 31
2 2 3 2 4 4 6 4 3 3 4 4 2 3 5 3 4 3 5 8 9 10 12 13 13 12 10 10 9 9 12 14 14 16 9 14 15 16 14 11 12 11 10 10 14 18 13 15 15 14 16 17 15 14
Wind_Direction
327 332 329 329 331 335 339 342 345 347 348 349 351 342 347 353 1 1 317 351 336 307 298 288 281 273 267 237 273 46 254 223 265 265 277 305 297 298 311 274 284 276 229 260 273 265 272 58 160 295 71 189 130 128
321 326 325 325 327 329 333 336 341 341 343 345 347 335 337 345 350 357 288 344 321 267 296 310 284 270 266 275 299 306 288 292 329 269 260 303 240 286 263 284 158 250 275 222 288 43 5 350 68 98 342 115 102 106
316 319 320 321 323 324 328 331 333 334 337 338 338 338 333 336 337 340 309 319 311 265 278 242 245 221 238 239 250 268 261 6 234 333 300 261 281 291 273 294 278 217 242 260 215 138 176 163 112 120 206 111 127 112
313 313 316 317 318 319 321 323 325 325 328 330 330 331 307 320 322 315 296 309 303 287 280 281 141 218 230 237 235 234 260 247 261 270 271 264 294 325 283 291 270 115 285 226 256 195 201 185 202 146 164 140 123 117
307 308 311 312 313 313 315 316 316 318 319 320 323 321 290 296 309 301 279 273 269 278 319 314 302 276 266 256 233 227 233 248 254 262 229 250 315 137 263 292 271 177 211 223 40 11 251 126 162 156 164 170 179 162
305 304 305 305 306 307 308 308 308 310 311 312 316 313 292 297 313 314 210 176 258 228 283 282 355 276 243 242 217 211 220 230 240 249 271 269 231 249 267 269 349 267 187 283 95 328 131 338 157 181 182 183 182 156
304 302 300 303 302 302 304 304 304 304 308 307 310 310 287 294 303 254 332 23 39 266 256 281 281 144 242 227 211 214 215 239 244 242 250 249 231 263 262 263 190 305 203 179 328 268 225 214 180 193 197 187 148 137
299 296 296 296 297 297 299 302 300 300 304 305 305 303 279 288 288 264 241 252 240 270 268 270 272 260 172 232 222 207 203 206 239 249 268 247 233 60 302 254 268 271 249 256 210 238 258 228 198 180 188 166 180 182
300 299 296 294 292 289 291 295 296 298 304 303 302 288 295 227 232 64 290 253 192 276 291 241 272 331 165 249 232 43 259 224 267 218 232 255 253 219 245 276 250 262 275 280 237 248 241 231 185 190 186 189 190 179
295 293 290 291 290 286 286 288 289 295 302 302 304 219 208 107 211 260 183 188 194 209 226 258 281 268 291 284 239 252 223 263 125 253 258 306 250 253 244 252 265 265 238 256 260 238 218 232 205 201 196 194 189 184
293 286 286 287 284 279 277 278 280 289 285 248 238 302 76 148 203 214 215 240 196 243 227 234 245 263 234 256 291 25 238 351 296 223 222 217 242 249 330 276 254 263 258 254 249 244 246 237 212 206 197 208 198 186
287 285 282 280 276 272 269 262 253 230 280 278 302 284 253 214 239 230 222 195 192 242 158 225 176 220 262 318 260 199 282 242 264 349 256 245 41 9 332 302 271 224 231 236 227 236 252 245 184 187 205 207 205 201
285 281 277 273 268 263 256 244 231 225 294 276 228 230 195 210 227 225 202 201 207 186 185 200 182 267 157 233 236 224 241 238 319 244 240 258 119 153 253 294 292 273 252 233 237 231 226 178 168 189 196 203 205 212
283 277 273 266 256 248 240 225 211 208 227 250 203 213 224 197 232 207 245 9 89 198 167 205 205 225 232 179 253 257 256 276 235 248 243 38 2 337 294 296 285 263 246 245 231 206 212 184 189 188 188 195 205 208
280 271 264 253 239 231 216 203 188 188 241 244 246 232 215 241 310 288 312 190 159 236 222 74 346 295 238 274 251 257 231 249 263 276 6 312 5 4 16 6 337 273 240 215 179 181 197 184 199 207 209 209 209 211
272 261 244 239 217 202 186 173 172 199 254 238 228 257 247 283 227 226 205 215 198 214 231 223 113 237 235 209 225 226 226 264 13 17 198 211 36 39 32 34 21 4 134 166 162 167 188 190 204 199 202 209 198 206
238 221 232 207 182 175 169 151 159 212 250 230 238 230 268 275 277 279 124 107 119 247 210 135 224 206 246 249 251 229 278 334 263 245 72 65 51 38 33 39 46 61 74 109 145 181 170 182 185 165 176 174 199 193
208 220 215 173 164 158 176 223 223 224 235 236 252 240 224 236 264 269 344 170 252 255 202 213 268 238 238 265 97 299 346 347 14 6 8 77 68 56 24 46 50 64 81 104 110 114 128 159 175 187 179 202 229 218
198 193 183 169 159 149 178 207 236 255 232 251 232 259 278 236 120 194 183 260 6 2 194 215 229 200 270 295 290 102 305 296 4 311 104 159 158 80 41 2 72 95 98 121 162 190 174 209 281 282 223 211 222 239
187 186 176 174 169 209 210 204 204 246 256 249 236 253 238 238 214 216 177 211 245 219 229 217 235 212 228 149 306 274 321 341 321 330 318 227 162 161 187 285 311 79 221 180 213 225 246 234 240 242 257 266 268 258
155 175 179 176 218 281 280 248 218 253 256 262 248 232 227 235 227 205 214 207 194 201 231 240 266 253 318 338 300 321 304 278 295 307 305 160 263 97 171 204 211 253 249 244 243 182 211 274 284 273 250 230 243 245
123 135 114 142 206 266 258 247 255 306 247 246 249 240 234 228 228 224 194 199 226 247 254 245 256 29 248 227 250 272 304 303 276 280 262 270 276 261 237 250 256 256 270 252 270 284 277 241 229 240 247 260 229 255
113 114 94 118 267 252 264 224 238 217 238 213 167 205 217 232 243 235 211 226 242 231 243 229 239 254 273 280 281 263 255 258 270 275 276 248 244 253 261 263 255 265 277 273 259 250 260 88 254 269 270 217 248 244
115 129 146 183 210 261 274 216 226 253 241 227 206 213 199 155 177 211 231 237 242 208 226 227 248 247 243 237 252 246 235 221 239 254 255 252 253 235 240 258 250 243 242 259 315 266 241 244 209 207 241 243 222 255
107 205 201 219 207 234 252 231 215 214 233 207 227 204 175 174 196 228 214 104 22 357 130 186 225 240 245 224 235 205 213 247 237 252 245 261 266 252 243 263 348 313 302 222 232 246 274 275 202 241 223 240 255 187
216 200 209 206 203 210 224 254 208 220 228 206 193 212 225 200 238 181 84 73 63 29 353 334 322 316 284 330 287 346 105 46 305 284 278 270 258 271 269 263 290 296 275 242 216 263 233 229 263 238 234 260 226 260
234 235 241 222 270 335 288 252 263 239 202 208 169 197 191 245 180 95 88 32 38 19 342 349 320 310 292 308 322 293 281 276 262 283 305 301 289 288 288 282 276 291 290 285 240 259 271 280 290 289 234 247 244 220
258 251 231 151 252 214 256 285 249 207 223 140 163 152 158 286 73 49 62 38 18 359 335 323 305 281 287 294 269 266 244 246 246 253 256 255 260 247 240 224 239 263 282 281 275 281 290 289 294 229 251 266 257 248
233 191 191 220 205 218 224 238 203 80 356 47 62 80 89 45 14 33 57 39 26 15 359 350 338 345 345 341 324 249 249 269 324 6 355 325 315 73 267 307 345 286 254 248 232 241 249 281 301 334 316 278 242 236
249 23 296 283 268 242 319 321 9 7 350 89 119 137 109 101 65 214 124 84 44 4 326 312 326 10 5 40 5 13 4 25 29 358 349 321 333 326 322 321 308 299 285 270 271 205 222 236 255 257 251 251 250 232
358 322 243 218 256 269 315 341 295 275 270 216 220 159 135 140 123 70 39 4 341 293 16 9 7 25 13 6 358 2 358 1 350 344 349 327 326 325 320 312 296 281 289 287 274 276 227 214 237 235 233 236 246 234
277 287 336 277 274 297 199 279 343 292 213 159 136 132 152 140 89 23 13 7 7 7 20 8 350 5 353 347 334 344 350 334 338 343 338 336 334 329 319 305 316 319 307 296 282 267 264 267 270 255 270 256 8 332
234 240 252 238 209 202 207 209 204 201 214 156 98 112 92 70 80 25 7 15 7 8 5 357 348 343 343 338 334 351 345 334 329 320 311 332 329 324 319 311 304 296 293 273 268 281 290 266 255 263 266 279 273 246